Zurück zum Katalog

STARLINK-32000

AktivKommunikationVLEO
NORAD 60289·PAYLOAD·🇺🇸 United States

Gestartet Jul 28, 2024 von Cape Canaveral Space Force Station

Loading…

Nächste Überflüge (nächste 24 Stunden)

TLE

AktuellSource: CelesTrak SupGP

Epoche: Sep 14, 2026, 21:30 UTC

1 60289C 24132M   26257.89631944  .00045239  00000+0  14549-2 0  2577
2 60289  53.1571 252.2689 0001188  89.6147  44.4571 15.31675421    17

Verfolge STARLINK-32000 in Echtzeit mit AllMySat

Download on the App Store